EDV297 KSFO-KOAK

Flight info

Callsign EDV297
Flight time N/A
Altitude 3000
Route TRUKN2 TRUKN
Aircraft CRJ9/M-SDFGIRWY/S

Departure

Time 2026-04-30 20:44
Airport San Francisco International Airport (KSFO)

Arrival

Time N/A
Airport San Francisco Bay Oakland International Airport (KOAK)
Time Latitude Longitude Altitude Speed Heading
2026-04-30 20:44 37.58082 -122.14512 4192 ft 230 kts 127°
2026-04-30 20:44 37.57100 -122.12930 4195 ft 229 kts 127°
2026-04-30 20:44 37.55136 -122.09772 4207 ft 228 kts 127°
2026-04-30 20:45 37.53167 -122.06646 4217 ft 227 kts 128°
2026-04-30 20:45 37.52193 -122.05078 4216 ft 227 kts 127°
2026-04-30 20:45 37.51218 -122.03514 4217 ft 227 kts 127°
2026-04-30 20:46 37.48312 -121.98809 4195 ft 226 kts 127°
2026-04-30 20:46 37.47351 -121.97243 4195 ft 226 kts 127°
2026-04-30 20:47 37.45378 -121.94030 4215 ft 244 kts 127°
2026-04-30 20:47 37.44679 -121.92892 4221 ft 252 kts 127°
2026-04-30 20:48 37.42552 -121.89179 4217 ft 271 kts 111°
2026-04-30 20:48 37.42369 -121.86848 4218 ft 272 kts 76°
2026-04-30 20:48 37.43192 -121.84783 4241 ft 265 kts 53°
2026-04-30 20:48 37.44274 -121.82973 4230 ft 255 kts 51°
2026-04-30 20:49 37.45393 -121.81357 4207 ft 247 kts 37°
2026-04-30 20:49 37.46884 -121.80551 4189 ft 239 kts
2026-04-30 20:49 37.48487 -121.80887 4199 ft 235 kts 332°
2026-04-30 20:50 37.50473 -121.84052 4243 ft 251 kts 298°
2026-04-30 20:50 37.51272 -121.85931 4238 ft 237 kts 298°
2026-04-30 20:50 37.52020 -121.87757 4216 ft 232 kts 297°
2026-04-30 20:50 37.52742 -121.89550 4197 ft 227 kts 297°
2026-04-30 20:51 37.53456 -121.91306 4173 ft 223 kts 297°
2026-04-30 20:51 37.54884 -121.94700 3834 ft 219 kts 299°
2026-04-30 20:51 37.55630 -121.96386 3711 ft 218 kts 300°
2026-04-30 20:52 37.56372 -121.98031 3551 ft 213 kts 301°
2026-04-30 20:52 37.57100 -121.99625 3389 ft 208 kts 301°
2026-04-30 20:52 37.58551 -122.02698 3079 ft 199 kts 302°
2026-04-30 20:53 37.59248 -122.04136 3023 ft 190 kts 302°
2026-04-30 20:53 37.59966 -122.05463 2955 ft 177 kts 317°
2026-04-30 20:53 37.61020 -122.06094 2799 ft 165 kts 351°
2026-04-30 20:54 37.62662 -122.07737 3487 ft 147 kts 304°
2026-04-30 20:54 37.63235 -122.08836 3387 ft 156 kts 303°
2026-04-30 20:54 37.63715 -122.09910 3080 ft 126 kts 301°
2026-04-30 20:55 37.64393 -122.11847 2118 ft 113 kts 292°
2026-04-30 20:55 37.64705 -122.12759 1569 ft 124 kts 298°
2026-04-30 20:55 37.65166 -122.13712 1256 ft 119 kts 298°
2026-04-30 20:56 37.66277 -122.15298 693 ft 141 kts 303°
2026-04-30 20:56 37.66766 -122.16155 1037 ft 91 kts 304°
2026-04-30 20:56 37.67647 -122.17741 482 ft 135 kts 303°
2026-04-30 20:57 37.68203 -122.18528 763 ft 110 kts 311°
2026-04-30 20:57 37.68750 -122.19380 690 ft 126 kts 305°
2026-04-30 20:57 37.69281 -122.20200 362 ft 134 kts 311°
2026-04-30 20:58 37.70463 -122.21908 8 ft 130 kts 309°
2026-04-30 20:58 37.70969 -122.22656 5 ft 91 kts 310°
2026-04-30 20:58 37.71284 -122.23128 8 ft 66 kts 309°